Regional Weather Roundup
Issued by NWS

Home | Current Version | Previous Version | Graphics & Text | Print | Product List | Glossary On
Versions: 1 2 3 4 5 6 7 8 9 10 11 12 13 14 15 16 17 18 19 20 21 22 23 24 25 26 27 28 29 30 31 32 33 34 35 36 37 38 39 40 41 42 43 44 45 46 47 48 49 50
681
ASUS45 KBOU 190807
RWRCO

WEATHER ROUNDUP FOR COLORADO
NATIONAL WEATHER SERVICE DENVER/BOULDER CO
200 AM MDT THU OCT 19 2017

NOTE: "FAIR" INDICATES FEW OR NO CLOUDS BELOW 12000 FEET WITH NO
SIGNIFICANT WEATHER AND/OR OBSTRUCTIONS TO VISIBILITY.

COZ001>005-013-030-031-190900-
...NORTHWEST COLORADO...

CITY           SKY/WX    TMP DP  RH WIND       PRES   REMARKS
CRAIG          FAIR      26  19  74 W3        30.19S
HAYDEN         FAIR      39  16  39 E14       30.20F
MEEKER         FAIR      33  18  53 NE7       30.19F WCI  27
RABBIT EARS PA FAIR      43   9  24 S6        30.39S
STEAMBOAT SPGS FAIR      33  16  49 CALM      30.23S
WALDEN         NOT AVBL
$$

COZ006>008-011-190900-
...WEST CENTRAL VALLEYS...

CITY           SKY/WX    TMP DP  RH WIND       PRES   REMARKS
GRAND JUNCTION FAIR      49  20  31 SE8       30.11F
MONTROSE       FAIR      40  20  44 S3        30.19S
EAGLE          FAIR      31  19  61 E3        30.27S
RIFLE          FAIR      38  19  46 SE5       30.18S
DELTA          FAIR      44  13  29 E7        30.16S
NUCLA          FAIR      45  14  29 E7        30.20S
$$

COZ017>023-064>068-190900-
...SOUTHWEST COLORADO...

CITY           SKY/WX    TMP DP  RH WIND       PRES   REMARKS
DURANGO        FAIR      38  22  52 CALM      30.21F
CORTEZ         FAIR      37  25  61 E3        30.17S
PAGOSA SPRINGS FAIR      36  18  48 CALM      30.28S
TELLURIDE      NOT AVBL
WOLF CREEK PAS FAIR      37   9  30 SW7       30.54S
$$

COZ009-010-012-014-032>034-037-058>063-190900-
...CENTRAL COLORADO...

CITY           SKY/WX    TMP DP  RH WIND       PRES   REMARKS
ASPEN          FAIR      32  16  51 S5        30.26F WCI  27
BUENA VISTA    FAIR      33  13  42 CALM      30.31S
COPPER MTN     FAIR      45   1  16 S18       30.48S
BERTHOUD PASS  FAIR      34  27  75 W12G20    30.49F WCI  25
COTTONWOOD PAS FAIR      50  -4  10 W8        30.39S
GUNNISON       FAIR      27  15  61 CALM      30.33R
KREMMLING      FAIR      30  19  64 W3        30.30S
LEADVILLE      FAIR      28   7  41 CALM      30.37F
SALIDA         NOT AVBL
SUNLIGHT       FAIR      39   1  20 S5        30.44S
WILKERSON PASS FAIR      37   3  23 SW12G17   30.47F
$$

COZ069>075-190900-
...SAN LUIS VALLEY/SANGRE DE CRISTO MOUNTAINS...

CITY           SKY/WX    TMP DP  RH WIND       PRES   REMARKS
ALAMOSA        FAIR      27  16  63 SW5       30.28S WCI  22
DEL NORTE      FAIR      38  14  37 W14       30.30F
LA VETA PASS   FAIR      45  12  26 SW10      30.51S
SAGUACHE       FAIR      37  12  35 NW12      30.29F
$$

COZ035-036-038>040-190900-
...NORTHERN COLORADO FRONT RANGE...

CITY           SKY/WX    TMP DP  RH WIND       PRES   REMARKS
DENVER INTL AP FAIR      54  24  31 S15       30.11F
DMNS CITY PARK   N/A     52  18  26 S8        30.11S
AURORA         PTCLDY    52  24  33 S14       30.12F
FRONT RANGE AP FAIR      54  25  32 S13G21    30.12S
ERIE MUNI ARPT FAIR      38  28  67 CALM      30.16S
BOULDER MUN AP NOT AVBL
CENTENNIAL     FAIR      55  22  27 S10       30.14F
BROOMFIELD     FAIR      50  19  29 CALM      30.13S
FORT COLLINS   FAIR      42  28  57 N7        30.11S
LONGMONT       FAIR      40  27  60 CALM      30.12S
$$

COZ041-046-047-076>085-087-088-190900-
...PIKES PEAK/PALMER DIVIDE AND SOUTHERN FOOTHILLS...

CITY           SKY/WX    TMP DP  RH WIND       PRES   REMARKS
COLO. SPRINGS  FAIR      44  25  47 E3        30.21F
A. F. ACADEMY  FAIR      37  22  55 N10       30.20F
SCHRIEVER AFB  FAIR      49  19  31 N5        30.20F
CHEYENNE MTN   NOT AVBL
ELLICOTT       FAIR     N/A N/A N/A SE3       30.18F
FALCON         FAIR      42  20  42 SW3       30.23F
FORT CARSON    FAIR      46  24  40 NW8       30.17F
LIMON          FAIR      31  26  82 CALM      30.16F
MONUMENT HILL  NOT AVBL
CANON CITY     CLEAR     48  21  34 W10       30.16F
WALSENBURG     FAIR      41  21  45 W7        30.18S
TRINIDAD       FAIR      49  21  33 W13       30.16F
$$

COZ042>045-048>051-090-091-190900-
...NORTHEAST COLORADO...

CITY           SKY/WX    TMP DP  RH WIND       PRES   REMARKS
GREELEY ARPT   FAIR      35  28  75 NW3       30.10S
AKRON          FAIR      49  29  46 S15       30.10F
BURLINGTON     FAIR      43  33  68 S9        30.12S
WRAY           FAIR      43  32  65 MISG      30.11F
YUMA           FAIR      32  28  86 SW3       30.10F
STERLING       NOT AVBL
HOLYOKE        FAIR      37  32  81 CALM      30.11F
FORT MORGAN    FAIR      42  24  48 N9        30.11S
$$

COZ086-089-092>099-190900-
...SOUTHEAST COLORADO...

CITY           SKY/WX    TMP DP  RH WIND       PRES   REMARKS
PUEBLO         FAIR      40  28  62 NW6       30.13S
LA JUNTA       FAIR      45  31  58 NW3       30.10F
LAMAR          FAIR      39  29  67 SW3       30.08S
SPRINGFIELD      N/A     40  36  86 NW6       30.10F
$$




USA.gov is the U.S. government's official web portal to all federal, state and local government web resources and services.